Time,TemperatureF,DewpointF,PressureIn,WindDirection,WindDirectionDegrees,WindSpeedMPH,WindSpeedGustMPH,Humidity,HourlyPrecipIn,Conditions,Clouds,dailyrainin,SoftwareType,DateUTC
2013-11-17 00:00:00,27.9,14.6,29.49,WSW,258,7.0,18.0,57,0.00,,---,0.00,VWS V15.00,2013-11-17 07:00:00,
2013-11-17 00:04:00,28.4,13.0,29.48,WNW,302,6.0,19.0,52,0.00,,---,0.00,VWS V13.01,2013-11-17 07:04:00,
2013-11-17 00:09:00,28.6,14.1,29.48,SW,216,9.0,19.0,54,0.00,,---,0.00,VWS V13.01,2013-11-17 07:09:00,
2013-11-17 00:14:00,28.8,14.3,29.48,SSW,198,2.0,19.0,54,0.00,,---,0.00,VWS V13.01,2013-11-17 07:14:00,
2013-11-17 00:19:00,28.9,14.4,29.48,SW,225,1.0,19.0,54,0.00,,---,0.00,VWS V13.01,2013-11-17 07:19:00,
2013-11-17 00:24:00,28.7,13.8,29.50,NW,314,6.0,19.0,53,0.00,,---,0.00,VWS V13.01,2013-11-17 07:24:00,
2013-11-17 00:29:00,28.4,14.3,29.49,West,276,6.0,19.0,55,0.00,,---,0.00,VWS V13.01,2013-11-17 07:29:00,
2013-11-17 00:30:00,28.1,13.2,29.51,WSW,257,5.0,21.0,53,0.00,,---,0.00,VWS V15.00,2013-11-17 07:30:00,
2013-11-17 00:34:00,28.3,14.6,29.49,WNW,285,8.0,8.0,56,0.00,,---,0.00,VWS V13.01,2013-11-17 07:34:00,
2013-11-17 00:39:00,28.1,14.4,29.51,West,260,6.0,13.0,56,0.00,,---,0.00,VWS V13.01,2013-11-17 07:39:00,
2013-11-17 00:44:00,27.9,14.6,29.50,WSW,243,10.0,15.0,57,0.00,,---,0.00,VWS V13.01,2013-11-17 07:44:00,
2013-11-17 00:49:00,27.9,14.6,29.50,WSW,254,6.0,18.0,57,0.00,,---,0.00,VWS V13.01,2013-11-17 07:49:00,
2013-11-17 00:54:00,27.9,14.2,29.49,WSW,252,8.0,18.0,56,0.00,,---,0.00,VWS V13.01,2013-11-17 07:54:00,
2013-11-17 01:00:00,27.9,14.6,29.49,WSW,258,7.0,18.0,57,0.00,,---,0.00,VWS V13.01,2013-11-17 08:00:00,
2013-11-17 01:05:00,28.0,15.1,29.50,WSW,249,15.0,18.0,58,0.00,,---,0.00,VWS V13.01,2013-11-17 08:05:00,
2013-11-17 01:10:00,28.0,14.8,29.50,WSW,258,15.0,21.0,57,0.00,,---,0.00,VWS V13.01,2013-11-17 08:10:00,
2013-11-17 01:15:00,27.9,14.6,29.50,West,259,15.0,21.0,57,0.00,,---,0.00,VWS V13.01,2013-11-17 08:15:00,
2013-11-17 01:20:00,28.1,14.4,29.51,WSW,251,16.0,21.0,56,0.00,,---,0.00,VWS V13.01,2013-11-17 08:20:00,
2013-11-17 01:25:00,28.1,14.0,29.51,WSW,242,15.0,21.0,55,0.00,,---,0.00,VWS V13.01,2013-11-17 08:25:00,
2013-11-17 01:30:00,28.1,13.2,29.52,WSW,253,4.0,5.0,53,0.00,,---,0.00,VWS V13.01,2013-11-17 08:30:00,
2013-11-17 01:35:00,28.0,12.7,29.52,WSW,242,8.0,12.0,52,0.00,,---,0.00,VWS V13.01,2013-11-17 08:35:00,
2013-11-17 01:40:00,28.0,11.8,29.53,West,274,1.0,12.0,50,0.00,,---,0.00,VWS V13.01,2013-11-17 08:40:00,
2013-11-17 01:45:00,28.0,11.3,29.53,West,262,4.0,12.0,49,0.00,,---,0.00,VWS V13.01,2013-11-17 08:45:00,
2013-11-17 01:50:00,27.9,11.2,29.54,West,273,4.0,12.0,49,0.00,,---,0.00,VWS V13.01,2013-11-17 08:50:00,
2013-11-17 01:55:00,28.0,11.3,29.54,West,266,12.0,13.0,49,0.00,,---,0.00,VWS V13.01,2013-11-17 08:55:00,
2013-11-17 02:00:00,28.1,11.4,29.54,West,272,7.0,7.0,49,0.00,,---,0.00,VWS V13.01,2013-11-17 09:00:00,
2013-11-17 02:05:00,28.4,11.2,29.54,West,273,7.0,10.0,48,0.00,,---,0.00,VWS V13.01,2013-11-17 09:05:00,
2013-11-17 02:10:00,28.6,10.9,29.55,WNW,292,15.0,22.0,47,0.00,,---,0.00,VWS V13.01,2013-11-17 09:10:00,
2013-11-17 02:15:00,28.9,11.2,29.55,WNW,284,13.0,22.0,47,0.00,,---,0.00,VWS V13.01,2013-11-17 09:15:00,
2013-11-17 02:21:00,29.0,11.3,29.55,WNW,292,14.0,22.0,47,0.00,,---,0.00,VWS V13.01,2013-11-17 09:21:00,
2013-11-17 02:26:00,29.0,11.3,29.56,WNW,292,13.0,22.0,47,0.00,,---,0.00,VWS V13.01,2013-11-17 09:26:00,
2013-11-17 02:30:00,27.2,10.6,29.59,SW,220,14.0,19.0,49,0.00,,---,0.00,VWS V15.00,2013-11-17 09:30:00,
2013-11-17 02:31:00,28.8,11.1,29.57,WNW,300,11.0,20.0,47,0.00,,---,0.00,VWS V13.01,2013-11-17 09:31:00,
2013-11-17 02:36:00,28.7,11.0,29.57,WNW,301,12.0,20.0,47,0.00,,---,0.00,VWS V13.01,2013-11-17 09:36:00,
2013-11-17 02:41:00,28.6,11.4,29.58,WNW,291,11.0,20.0,48,0.00,,---,0.00,VWS V13.01,2013-11-17 09:41:00,
2013-11-17 02:46:00,28.4,11.2,29.58,West,260,4.0,20.0,48,0.00,,---,0.00,VWS V13.01,2013-11-17 09:46:00,
2013-11-17 02:51:00,28.2,10.6,29.58,West,278,10.0,20.0,47,0.00,,---,0.00,VWS V13.01,2013-11-17 09:51:00,
2013-11-17 02:56:00,28.2,11.0,29.58,West,260,5.0,20.0,48,0.00,,---,0.00,VWS V13.01,2013-11-17 09:56:00,
2013-11-17 03:00:00,28.2,9.6,29.60,SW,236,9.0,27.0,45,0.00,,---,0.00,VWS V15.00,2013-11-17 10:00:00,
2013-11-17 03:01:00,28.2,11.5,29.59,WSW,247,7.0,13.0,49,0.00,,---,0.00,VWS V13.01,2013-11-17 10:01:00,
2013-11-17 03:06:00,28.0,11.3,29.58,West,263,6.0,15.0,49,0.00,,---,0.00,VWS V13.01,2013-11-17 10:06:00,
2013-11-17 03:11:00,27.8,11.1,29.59,WSW,239,14.0,19.0,49,0.00,,---,0.00,VWS V13.01,2013-11-17 10:11:00,
2013-11-17 03:16:00,27.7,11.5,29.59,WSW,242,5.0,19.0,50,0.00,,---,0.00,VWS V13.01,2013-11-17 10:16:00,
2013-11-17 03:21:00,27.4,11.2,29.59,SW,227,8.0,19.0,50,0.00,,---,0.00,VWS V13.01,2013-11-17 10:21:00,
2013-11-17 03:26:00,27.3,10.7,29.60,WSW,249,3.0,19.0,49,0.00,,---,0.00,VWS V13.01,2013-11-17 10:26:00,
2013-11-17 03:30:00,27.9,8.3,29.61,WSW,239,19.0,19.0,43,0.00,,---,0.00,VWS V15.00,2013-11-17 10:30:00,
2013-11-17 03:31:00,27.1,10.5,29.58,SW,233,16.0,19.0,49,0.00,,---,0.00,VWS V13.01,2013-11-17 10:31:00,
2013-11-17 03:36:00,27.3,10.2,29.59,SW,225,18.0,22.0,48,0.00,,---,0.00,VWS V13.01,2013-11-17 10:36:00,
2013-11-17 03:41:00,27.7,9.6,29.59,SW,229,14.0,27.0,46,0.00,,---,0.00,VWS V13.01,2013-11-17 10:41:00,
2013-11-17 03:47:00,28.2,10.1,29.60,WSW,252,9.0,27.0,46,0.00,,---,0.00,VWS V13.01,2013-11-17 10:47:00,
2013-11-17 03:52:00,28.2,10.1,29.60,West,266,11.0,27.0,46,0.00,,---,0.00,VWS V13.01,2013-11-17 10:52:00,
2013-11-17 03:57:00,28.2,9.6,29.60,West,264,8.0,27.0,45,0.00,,---,0.00,VWS V13.01,2013-11-17 10:57:00,
2013-11-17 04:00:00,28.0,7.9,29.63,WNW,285,0.0,19.0,42,0.00,,---,0.00,VWS V15.00,2013-11-17 11:00:00,
2013-11-17 04:02:00,28.1,9.5,29.61,West,267,4.0,9.0,45,0.00,,---,0.00,VWS V13.01,2013-11-17 11:02:00,
2013-11-17 04:07:00,27.8,9.7,29.60,West,270,5.0,9.0,46,0.00,,---,0.00,VWS V13.01,2013-11-17 11:07:00,
2013-11-17 04:12:00,27.8,8.7,29.60,WSW,251,9.0,14.0,44,0.00,,---,0.00,VWS V13.01,2013-11-17 11:12:00,
2013-11-17 04:17:00,27.9,8.8,29.61,WSW,244,9.0,17.0,44,0.00,,---,0.00,VWS V13.01,2013-11-17 11:17:00,
2013-11-17 04:22:00,28.0,8.9,29.62,WSW,256,7.0,17.0,44,0.00,,---,0.00,VWS V13.01,2013-11-17 11:22:00,
2013-11-17 04:27:00,28.0,8.4,29.61,WSW,255,7.0,17.0,43,0.00,,---,0.00,VWS V13.01,2013-11-17 11:27:00,
2013-11-17 04:30:00,28.0,8.9,29.64,WSW,255,7.0,15.0,44,0.00,,---,0.00,VWS V15.00,2013-11-17 11:30:00,
2013-11-17 04:32:00,28.0,7.9,29.61,WNW,297,7.0,19.0,42,0.00,,---,0.00,VWS V13.01,2013-11-17 11:32:00,
2013-11-17 04:37:00,28.0,7.9,29.62,WSW,246,7.0,19.0,42,0.00,,---,0.00,VWS V13.01,2013-11-17 11:37:00,
2013-11-17 04:42:00,27.8,7.7,29.62,WSW,247,9.0,19.0,42,0.00,,---,0.00,VWS V13.01,2013-11-17 11:42:00,
2013-11-17 04:47:00,27.8,7.7,29.61,SW,234,10.0,19.0,42,0.00,,---,0.00,VWS V13.01,2013-11-17 11:47:00,
2013-11-17 04:52:00,28.0,7.4,29.62,WNW,282,3.0,19.0,41,0.00,,---,0.00,VWS V13.01,2013-11-17 11:52:00,
2013-11-17 04:57:00,28.1,7.4,29.63,West,273,3.0,19.0,41,0.00,,---,0.00,VWS V13.01,2013-11-17 11:57:00,
2013-11-17 05:00:00,28.8,9.6,29.66,WSW,253,8.0,18.0,44,0.00,,---,0.00,VWS V15.00,2013-11-17 12:00:00,
2013-11-17 05:02:00,27.8,7.7,29.63,WNW,288,6.0,11.0,42,0.00,,---,0.00,VWS V13.01,2013-11-17 12:02:00,
2013-11-17 05:07:00,27.6,7.0,29.64,NW,304,8.0,11.0,41,0.00,,---,0.00,VWS V13.01,2013-11-17 12:07:00,
2013-11-17 05:12:00,27.7,7.1,29.63,WNW,290,4.0,15.0,41,0.00,,---,0.00,VWS V13.01,2013-11-17 12:12:00,
2013-11-17 05:17:00,28.0,7.4,29.64,NW,316,4.0,15.0,41,0.00,,---,0.00,VWS V13.01,2013-11-17 12:17:00,
2013-11-17 05:23:00,28.0,7.9,29.64,WNW,283,4.0,15.0,42,0.00,,---,0.00,VWS V13.01,2013-11-17 12:23:00,
2013-11-17 05:28:00,27.9,8.8,29.63,WNW,297,4.0,15.0,44,0.00,,---,0.00,VWS V13.01,2013-11-17 12:28:00,
2013-11-17 05:30:00,27.9,10.3,29.67,West,259,3.0,14.0,47,0.00,,---,0.00,VWS V15.00,2013-11-17 12:30:00,
2013-11-17 05:33:00,28.1,9.5,29.63,WSW,254,9.0,18.0,45,0.00,,---,0.00,VWS V13.01,2013-11-17 12:33:00,
2013-11-17 05:38:00,28.4,9.8,29.63,SW,234,7.0,18.0,45,0.00,,---,0.00,VWS V13.01,2013-11-17 12:38:00,
2013-11-17 05:43:00,28.4,9.3,29.64,SW,231,12.0,18.0,44,0.00,,---,0.00,VWS V13.01,2013-11-17 12:43:00,
2013-11-17 05:48:00,28.4,9.8,29.64,West,264,10.0,18.0,45,0.00,,---,0.00,VWS V13.01,2013-11-17 12:48:00,
2013-11-17 05:53:00,28.7,9.6,29.65,WSW,240,18.0,18.0,44,0.00,,---,0.00,VWS V13.01,2013-11-17 12:53:00,
2013-11-17 05:58:00,28.8,9.6,29.66,West,262,8.0,18.0,44,0.00,,---,0.00,VWS V13.01,2013-11-17 12:58:00,
2013-11-17 06:00:00,28.2,8.6,29.68,North,4,0.0,13.0,43,0.00,,---,0.00,VWS V15.00,2013-11-17 13:00:00,
2013-11-17 06:03:00,28.8,9.6,29.66,West,263,5.0,11.0,44,0.00,,---,0.00,VWS V13.01,2013-11-17 13:03:00,
2013-11-17 06:08:00,28.6,10.0,29.66,West,264,3.0,14.0,45,0.00,,---,0.00,VWS V13.01,2013-11-17 13:08:00,
2013-11-17 06:13:00,28.4,10.3,29.66,WNW,295,4.0,14.0,46,0.00,,---,0.00,VWS V13.01,2013-11-17 13:13:00,
2013-11-17 06:18:00,28.1,10.0,29.67,WSW,251,6.0,14.0,46,0.00,,---,0.00,VWS V13.01,2013-11-17 13:18:00,
2013-11-17 06:23:00,28.0,10.4,29.67,WSW,242,11.0,14.0,47,0.00,,---,0.00,VWS V13.01,2013-11-17 13:23:00,
2013-11-17 06:28:00,28.0,10.4,29.67,WSW,257,7.0,14.0,47,0.00,,---,0.00,VWS V13.01,2013-11-17 13:28:00,
2013-11-17 06:30:00,25.4,6.5,29.71,North,354,0.0,3.0,44,0.00,,---,0.00,VWS V15.00,2013-11-17 13:30:00,
2013-11-17 06:33:00,27.9,9.8,29.67,West,263,5.0,11.0,46,0.00,,---,0.00,VWS V13.01,2013-11-17 13:33:00,
2013-11-17 06:38:00,27.8,10.2,29.68,NW,308,5.0,11.0,47,0.00,,---,0.00,VWS V13.01,2013-11-17 13:38:00,
2013-11-17 06:43:00,27.9,9.3,29.68,WNW,286,3.0,13.0,45,0.00,,---,0.00,VWS V13.01,2013-11-17 13:43:00,
2013-11-17 06:48:00,28.2,9.1,29.68,WNW,288,0.0,13.0,44,0.00,,---,0.00,VWS V13.01,2013-11-17 13:48:00,
2013-11-17 06:54:00,28.6,8.9,29.68,NNE,16,2.0,13.0,43,0.00,,---,0.00,VWS V13.01,2013-11-17 13:54:00,
2013-11-17 06:59:00,28.3,8.7,29.68,North,4,2.0,13.0,43,0.00,,---,0.00,VWS V13.01,2013-11-17 13:59:00,
2013-11-17 07:00:00,29.6,7.7,29.70,WNW,290,6.0,12.0,39,0.00,,---,0.00,VWS V15.00,2013-11-17 14:00:00,
2013-11-17 07:04:00,28.0,8.9,29.69,North,358,2.0,3.0,44,0.00,,---,0.00,VWS V13.01,2013-11-17 14:04:00,
2013-11-17 07:09:00,27.5,7.9,29.69,North,358,0.0,3.0,43,0.00,,---,0.00,VWS V13.01,2013-11-17 14:09:00,
2013-11-17 07:14:00,27.1,8.1,29.69,North,358,0.0,3.0,44,0.00,,---,0.00,VWS V13.01,2013-11-17 14:14:00,
2013-11-17 07:19:00,26.6,8.1,29.70,North,356,0.0,3.0,45,0.00,,---,0.00,VWS V13.01,2013-11-17 14:19:00,
2013-11-17 07:24:00,26.0,7.1,29.70,North,356,0.0,3.0,44,0.00,,---,0.00,VWS V13.01,2013-11-17 14:24:00,
2013-11-17 07:29:00,25.5,6.6,29.70,North,354,1.0,3.0,44,0.00,,---,0.00,VWS V13.01,2013-11-17 14:29:00,
2013-11-17 07:30:00,33.6,8.9,29.72,WSW,248,12.0,17.0,35,0.00,,---,0.00,VWS V15.00,2013-11-17 14:30:00,
2013-11-17 07:34:00,25.2,6.8,29.70,North,354,0.0,0.0,45,0.00,,---,0.00,VWS V13.01,2013-11-17 14:34:00,
2013-11-17 07:39:00,25.5,7.1,29.71,North,353,0.0,3.0,45,0.00,,---,0.00,VWS V13.01,2013-11-17 14:39:00,
2013-11-17 07:44:00,25.9,7.5,29.71,North,351,3.0,3.0,45,0.00,,---,0.00,VWS V13.01,2013-11-17 14:44:00,
2013-11-17 07:49:00,26.6,7.1,29.72,WNW,296,6.0,8.0,43,0.00,,---,0.00,VWS V13.01,2013-11-17 14:49:00,
2013-11-17 07:54:00,27.9,8.3,29.71,WNW,288,5.0,11.0,43,0.00,,---,0.00,VWS V13.01,2013-11-17 14:54:00,
2013-11-17 07:59:00,29.6,7.7,29.70,WSW,238,5.0,12.0,39,0.00,,---,0.00,VWS V13.01,2013-11-17 14:59:00,
2013-11-17 08:00:00,35.1,10.2,29.74,WSW,240,9.0,22.0,35,0.00,,---,0.00,VWS V15.00,2013-11-17 15:00:00,
2013-11-17 08:04:00,31.2,8.6,29.72,WNW,298,7.0,9.0,38,0.00,,---,0.00,VWS V13.01,2013-11-17 15:04:00,
2013-11-17 08:09:00,32.6,8.6,29.72,WSW,253,11.0,12.0,36,0.00,,---,0.00,VWS V13.01,2013-11-17 15:09:00,
2013-11-17 08:14:00,33.1,8.4,29.72,WNW,296,2.0,13.0,35,0.00,,---,0.00,VWS V13.01,2013-11-17 15:14:00,
2013-11-17 08:20:00,33.3,9.2,29.71,WSW,258,4.0,13.0,36,0.00,,---,0.00,VWS V13.01,2013-11-17 15:20:00,
2013-11-17 08:25:00,33.3,8.6,29.72,West,281,5.0,13.0,35,0.00,,---,0.00,VWS V13.01,2013-11-17 15:25:00,
2013-11-17 08:30:00,33.6,8.9,29.72,WSW,248,12.0,17.0,35,0.00,,---,0.00,VWS V13.01,2013-11-17 15:30:00,
2013-11-17 08:35:00,34.0,9.2,29.72,SW,232,13.0,22.0,35,0.00,,---,0.00,VWS V13.01,2013-11-17 15:35:00,
2013-11-17 08:40:00,34.2,9.4,29.72,WSW,251,9.0,22.0,35,0.00,,---,0.00,VWS V13.01,2013-11-17 15:40:00,
2013-11-17 08:45:00,34.4,10.2,29.73,SW,234,8.0,22.0,36,0.00,,---,0.00,VWS V13.01,2013-11-17 15:45:00,
2013-11-17 08:50:00,34.8,9.9,29.73,SW,235,12.0,22.0,35,0.00,,---,0.00,VWS V13.01,2013-11-17 15:50:00,
2013-11-17 08:55:00,35.0,10.8,29.74,SW,227,11.0,22.0,36,0.00,,---,0.00,VWS V13.01,2013-11-17 15:55:00,
2013-11-17 09:00:00,35.1,10.2,29.74,WSW,245,7.0,12.0,35,0.00,,---,0.00,VWS V13.01,2013-11-17 16:00:00,
2013-11-17 09:05:00,35.2,10.3,29.74,WSW,256,9.0,16.0,35,0.00,,---,0.00,VWS V13.01,2013-11-17 16:05:00,
2013-11-17 09:10:00,35.3,10.4,29.74,SW,234,13.0,20.0,35,0.00,,---,0.00,VWS V13.01,2013-11-17 16:10:00,
2013-11-17 09:15:00,35.5,11.2,29.75,WSW,248,8.0,20.0,36,0.00,,---,0.00,VWS V13.01,2013-11-17 16:15:00,
2013-11-17 09:20:00,35.9,10.9,29.75,WSW,249,11.0,20.0,35,0.00,,---,0.00,VWS V13.01,2013-11-17 16:20:00,
2013-11-17 09:25:00,36.3,11.3,29.74,WSW,239,8.0,20.0,35,0.00,,---,0.00,VWS V13.01,2013-11-17 16:25:00,
2013-11-17 09:30:00,36.5,11.5,29.75,WSW,256,6.0,12.0,35,0.00,,---,0.00,VWS V13.01,2013-11-17 16:30:00,
2013-11-17 09:36:00,36.9,11.8,29.75,WSW,242,14.0,15.0,35,0.00,,---,0.00,VWS V13.01,2013-11-17 16:36:00,
2013-11-17 09:41:00,37.1,12.0,29.75,WSW,238,15.0,16.0,35,0.00,,---,0.00,VWS V13.01,2013-11-17 16:41:00,
2013-11-17 09:46:00,37.3,12.2,29.75,WSW,248,10.0,16.0,35,0.00,,---,0.00,VWS V13.01,2013-11-17 16:46:00,
2013-11-17 09:51:00,37.6,11.8,29.75,WSW,253,9.0,16.0,34,0.00,,---,0.00,VWS V13.01,2013-11-17 16:51:00,
2013-11-17 09:56:00,37.8,11.3,29.75,SW,236,12.0,16.0,33,0.00,,---,0.00,VWS V13.01,2013-11-17 16:56:00,
2013-11-17 10:00:00,39.4,12.0,29.77,WNW,288,6.0,13.0,32,0.00,,---,0.00,VWS V15.00,2013-11-17 17:00:00,
2013-11-17 10:01:00,37.9,11.4,29.75,NW,323,4.0,12.0,33,0.00,,---,0.00,VWS V13.01,2013-11-17 17:01:00,
2013-11-17 10:06:00,37.8,11.3,29.75,WSW,243,12.0,16.0,33,0.00,,---,0.00,VWS V13.01,2013-11-17 17:06:00,
2013-11-17 10:11:00,37.8,11.3,29.75,WSW,249,10.0,16.0,33,0.00,,---,0.00,VWS V13.01,2013-11-17 17:11:00,
2013-11-17 10:16:00,38.2,10.9,29.77,WSW,250,8.0,16.0,32,0.00,,---,0.00,VWS V13.01,2013-11-17 17:16:00,
2013-11-17 10:21:00,38.5,9.8,29.77,West,260,3.0,16.0,30,0.00,,---,0.00,VWS V13.01,2013-11-17 17:21:00,
2013-11-17 10:26:00,38.5,10.5,29.77,West,260,7.0,16.0,31,0.00,,---,0.00,VWS V13.01,2013-11-17 17:26:00,
2013-11-17 10:30:00,40.1,10.4,29.76,WNW,293,0.0,11.0,29,0.00,,---,0.00,VWS V15.00,2013-11-17 17:30:00,
2013-11-17 10:32:00,38.6,9.9,29.77,West,279,7.0,8.0,30,0.00,,---,0.00,VWS V13.01,2013-11-17 17:32:00,
2013-11-17 10:37:00,38.6,10.6,29.77,WNW,291,9.0,12.0,31,0.00,,---,0.00,VWS V13.01,2013-11-17 17:37:00,
2013-11-17 10:42:00,39.0,10.9,29.77,West,265,3.0,13.0,31,0.00,,---,0.00,VWS V13.01,2013-11-17 17:42:00,
2013-11-17 10:47:00,39.3,11.2,29.77,WNW,288,3.0,13.0,31,0.00,,---,0.00,VWS V13.01,2013-11-17 17:47:00,
2013-11-17 10:52:00,39.2,11.1,29.77,West,272,2.0,13.0,31,0.00,,---,0.00,VWS V13.01,2013-11-17 17:52:00,
2013-11-17 10:57:00,39.3,11.2,29.77,SW,233,10.0,13.0,31,0.00,,---,0.00,VWS V13.01,2013-11-17 17:57:00,
2013-11-17 11:00:00,39.8,10.1,29.76,WSW,238,7.0,7.0,29,0.00,,---,0.00,VWS V15.00,2013-11-17 18:00:00,
2013-11-17 11:02:00,39.5,11.4,29.77,WSW,243,2.0,11.0,31,0.00,,---,0.00,VWS V13.01,2013-11-17 18:02:00,
2013-11-17 11:07:00,39.6,11.5,29.77,WSW,237,6.0,11.0,31,0.00,,---,0.00,VWS V13.01,2013-11-17 18:07:00,
2013-11-17 11:12:00,39.9,11.0,29.77,West,277,2.0,11.0,30,0.00,,---,0.00,VWS V13.01,2013-11-17 18:12:00,
2013-11-17 11:17:00,39.5,10.6,29.76,SW,229,4.0,11.0,30,0.00,,---,0.00,VWS V13.01,2013-11-17 18:17:00,
2013-11-17 11:22:00,39.8,11.6,29.76,WSW,250,5.0,11.0,31,0.00,,---,0.00,VWS V13.01,2013-11-17 18:22:00,
2013-11-17 11:27:00,40.1,11.2,29.76,West,263,2.0,11.0,30,0.00,,---,0.00,VWS V13.01,2013-11-17 18:27:00,
2013-11-17 11:30:00,38.7,9.9,29.75,WNW,288,15.0,19.0,30,0.00,,---,0.00,VWS V15.00,2013-11-17 18:30:00,
2013-11-17 11:32:00,40.0,10.3,29.76,West,277,3.0,4.0,29,0.00,,---,0.00,VWS V13.01,2013-11-17 18:32:00,
2013-11-17 11:38:00,40.2,11.3,29.75,West,278,4.0,7.0,30,0.00,,---,0.00,VWS V13.01,2013-11-17 18:38:00,
2013-11-17 11:43:00,40.5,10.0,29.76,WSW,258,2.0,7.0,28,0.00,,---,0.00,VWS V13.01,2013-11-17 18:43:00,
2013-11-17 11:48:00,40.4,9.9,29.76,WSW,250,1.0,7.0,28,0.00,,---,0.00,VWS V13.01,2013-11-17 18:48:00,
2013-11-17 11:53:00,40.1,10.4,29.76,West,260,4.0,7.0,29,0.00,,---,0.00,VWS V13.01,2013-11-17 18:53:00,
2013-11-17 11:58:00,39.9,10.2,29.76,West,259,1.0,7.0,29,0.00,,---,0.00,VWS V13.01,2013-11-17 18:58:00,
2013-11-17 12:00:00,38.4,11.1,29.77,WSW,247,15.0,18.0,32,0.00,,---,0.00,VWS V15.00,2013-11-17 19:00:00,
2013-11-17 12:03:00,39.6,10.0,29.76,SW,218,3.0,7.0,29,0.00,,---,0.00,VWS V13.01,2013-11-17 19:03:00,
2013-11-17 12:08:00,39.6,10.7,29.76,SW,233,1.0,7.0,30,0.00,,---,0.00,VWS V13.01,2013-11-17 19:08:00,
2013-11-17 12:13:00,39.5,9.9,29.77,NW,310,3.0,8.0,29,0.00,,---,0.00,VWS V13.01,2013-11-17 19:13:00,
2013-11-17 12:18:00,38.7,9.9,29.76,WNW,294,8.0,14.0,30,0.00,,---,0.00,VWS V13.01,2013-11-17 19:18:00,
2013-11-17 12:23:00,38.3,10.3,29.77,West,270,4.0,18.0,31,0.00,,---,0.00,VWS V13.01,2013-11-17 19:23:00,
2013-11-17 12:28:00,38.7,9.2,29.76,WSW,257,8.0,19.0,29,0.00,,---,0.00,VWS V13.01,2013-11-17 19:28:00,
2013-11-17 12:30:00,38.8,12.9,29.78,West,267,9.0,19.0,34,0.00,,---,0.00,VWS V15.00,2013-11-17 19:30:00,
2013-11-17 12:33:00,38.6,10.6,29.77,WSW,257,8.0,17.0,31,0.00,,---,0.00,VWS V13.01,2013-11-17 19:33:00,
2013-11-17 12:38:00,38.4,10.4,29.77,WSW,241,13.0,17.0,31,0.00,,---,0.00,VWS V13.01,2013-11-17 19:38:00,
2013-11-17 12:44:00,38.3,11.0,29.77,West,275,8.0,18.0,32,0.00,,---,0.00,VWS V13.01,2013-11-17 19:44:00,
2013-11-17 12:49:00,38.4,11.1,29.77,West,277,6.0,18.0,32,0.00,,---,0.00,VWS V13.01,2013-11-17 19:49:00,
2013-11-17 12:54:00,38.1,11.6,29.77,West,280,5.0,18.0,33,0.00,,---,0.00,VWS V13.01,2013-11-17 19:54:00,
2013-11-17 12:59:00,38.4,11.1,29.77,SW,233,9.0,18.0,32,0.00,,---,0.00,VWS V13.01,2013-11-17 19:59:00,
2013-11-17 13:00:00,38.4,12.5,29.78,West,265,11.0,18.0,34,0.00,,---,0.00,VWS V15.00,2013-11-17 20:00:00,
2013-11-17 13:04:00,38.4,11.8,29.77,West,261,7.0,15.0,33,0.00,,---,0.00,VWS V13.01,2013-11-17 20:04:00,
2013-11-17 13:09:00,38.4,11.8,29.77,West,272,4.0,15.0,33,0.00,,---,0.00,VWS V13.01,2013-11-17 20:09:00,
2013-11-17 13:14:00,38.7,12.1,29.77,West,263,7.0,15.0,33,0.00,,---,0.00,VWS V13.01,2013-11-17 20:14:00,
2013-11-17 13:19:00,38.8,12.2,29.78,WSW,246,3.0,19.0,33,0.00,,---,0.00,VWS V13.01,2013-11-17 20:19:00,
2013-11-17 13:24:00,39.0,12.4,29.78,WSW,251,14.0,19.0,33,0.00,,---,0.00,VWS V13.01,2013-11-17 20:24:00,
2013-11-17 13:29:00,38.8,12.9,29.78,West,267,9.0,19.0,34,0.00,,---,0.00,VWS V13.01,2013-11-17 20:29:00,
2013-11-17 13:30:00,37.8,12.6,29.79,SW,216,7.0,16.0,35,0.00,,---,0.00,VWS V15.00,2013-11-17 20:30:00,
2013-11-17 13:34:00,38.9,12.9,29.78,WNW,300,4.0,16.0,34,0.00,,---,0.00,VWS V13.01,2013-11-17 20:34:00,
2013-11-17 13:40:00,39.3,13.3,29.77,WSW,248,12.0,16.0,34,0.00,,---,0.00,VWS V13.01,2013-11-17 20:40:00,
2013-11-17 13:45:00,39.0,12.4,29.79,West,272,5.0,16.0,33,0.00,,---,0.00,VWS V13.01,2013-11-17 20:45:00,
2013-11-17 13:50:00,38.7,13.4,29.78,WSW,251,7.0,18.0,35,0.00,,---,0.00,VWS V13.01,2013-11-17 20:50:00,
2013-11-17 13:55:00,38.6,13.3,29.79,WSW,250,10.0,18.0,35,0.00,,---,0.00,VWS V13.01,2013-11-17 20:55:00,
2013-11-17 14:00:00,38.4,12.5,29.79,WNW,296,1.0,11.0,34,0.00,,---,0.00,VWS V13.01,2013-11-17 21:00:00,
2013-11-17 14:05:00,38.0,12.1,29.79,SW,219,3.0,15.0,34,0.00,,---,0.00,VWS V13.01,2013-11-17 21:05:00,
2013-11-17 14:10:00,37.6,11.8,29.80,WNW,287,10.0,16.0,34,0.00,,---,0.00,VWS V13.01,2013-11-17 21:10:00,
2013-11-17 14:15:00,37.4,11.6,29.79,West,271,8.0,16.0,34,0.00,,---,0.00,VWS V13.01,2013-11-17 21:15:00,
2013-11-17 14:20:00,37.2,12.7,29.80,WSW,253,8.0,16.0,36,0.00,,---,0.00,VWS V13.01,2013-11-17 21:20:00,
2013-11-17 14:25:00,37.6,12.4,29.80,WSW,258,10.0,16.0,35,0.00,,---,0.00,VWS V13.01,2013-11-17 21:25:00,
2013-11-17 14:30:00,37.8,12.6,29.80,NW,314,6.0,10.0,35,0.00,,---,0.00,VWS V13.01,2013-11-17 21:30:00,
2013-11-17 14:35:00,38.0,12.8,29.80,WSW,254,11.0,13.0,35,0.00,,---,0.00,VWS V13.01,2013-11-17 21:35:00,
2013-11-17 14:40:00,38.3,12.4,29.80,West,269,9.0,13.0,34,0.00,,---,0.00,VWS V13.01,2013-11-17 21:40:00,
2013-11-17 14:46:00,38.7,12.8,29.79,WNW,290,5.0,13.0,34,0.00,,---,0.00,VWS V13.01,2013-11-17 21:46:00,
2013-11-17 14:51:00,38.7,12.8,29.80,WSW,246,9.0,13.0,34,0.00,,---,0.00,VWS V13.01,2013-11-17 21:51:00,
2013-11-17 14:56:00,38.8,12.9,29.80,West,277,3.0,13.0,34,0.00,,---,0.00,VWS V13.01,2013-11-17 21:56:00,
2013-11-17 15:00:00,37.0,11.9,29.81,WNW,284,8.0,19.0,35,0.00,,---,0.00,VWS V15.00,2013-11-17 22:00:00,
2013-11-17 15:01:00,38.9,12.9,29.79,WSW,252,7.0,13.0,34,0.00,,---,0.00,VWS V13.01,2013-11-17 22:01:00,
2013-11-17 15:06:00,38.8,13.5,29.79,WSW,253,12.0,13.0,35,0.00,,---,0.00,VWS V13.01,2013-11-17 22:06:00,
2013-11-17 15:11:00,38.9,12.9,29.81,WSW,253,6.0,13.0,34,0.00,,---,0.00,VWS V13.01,2013-11-17 22:11:00,
2013-11-17 15:16:00,39.0,13.0,29.81,West,259,6.0,13.0,34,0.00,,---,0.00,VWS V13.01,2013-11-17 22:16:00,
2013-11-17 15:21:00,38.9,12.9,29.81,West,265,6.0,14.0,34,0.00,,---,0.00,VWS V13.01,2013-11-17 22:21:00,
2013-11-17 15:26:00,38.8,12.2,29.81,WNW,290,5.0,14.0,33,0.00,,---,0.00,VWS V13.01,2013-11-17 22:26:00,
2013-11-17 15:30:00,36.3,11.9,29.83,NW,312,3.0,10.0,36,0.00,,---,0.00,VWS V15.00,2013-11-17 22:30:00,
2013-11-17 15:31:00,38.6,12.0,29.81,West,264,7.0,14.0,33,0.00,,---,0.00,VWS V13.01,2013-11-17 22:31:00,
2013-11-17 15:36:00,38.3,12.4,29.81,West,279,8.0,19.0,34,0.00,,---,0.00,VWS V13.01,2013-11-17 22:36:00,
2013-11-17 15:41:00,37.9,12.1,29.81,NW,307,4.0,19.0,34,0.00,,---,0.00,VWS V13.01,2013-11-17 22:41:00,
2013-11-17 15:46:00,37.5,11.7,29.81,WSW,251,7.0,19.0,34,0.00,,---,0.00,VWS V13.01,2013-11-17 22:46:00,
2013-11-17 15:51:00,37.3,11.5,29.81,West,279,11.0,19.0,34,0.00,,---,0.00,VWS V13.01,2013-11-17 22:51:00,
2013-11-17 15:56:00,37.1,12.0,29.81,WNW,289,7.0,19.0,35,0.00,,---,0.00,VWS V13.01,2013-11-17 22:56:00,
2013-11-17 16:00:00,35.4,11.7,29.83,NW,316,7.0,11.0,37,0.00,,---,0.00,VWS V15.00,2013-11-17 23:00:00,
2013-11-17 16:02:00,36.9,11.8,29.82,SW,215,6.0,9.0,35,0.00,,---,0.00,VWS V13.01,2013-11-17 23:02:00,
2013-11-17 16:07:00,36.6,12.2,29.82,NNW,334,3.0,9.0,36,0.00,,---,0.00,VWS V13.01,2013-11-17 23:07:00,
2013-11-17 16:12:00,36.4,12.0,29.82,WSW,245,3.0,10.0,36,0.00,,---,0.00,VWS V13.01,2013-11-17 23:12:00,
2013-11-17 16:17:00,36.4,12.0,29.82,NW,308,3.0,10.0,36,0.00,,---,0.00,VWS V13.01,2013-11-17 23:17:00,
2013-11-17 16:22:00,36.4,11.4,29.83,WNW,282,3.0,10.0,35,0.00,,---,0.00,VWS V13.01,2013-11-17 23:22:00,
2013-11-17 16:27:00,36.4,11.4,29.83,WNW,291,3.0,10.0,35,0.00,,---,0.00,VWS V13.01,2013-11-17 23:27:00,
2013-11-17 16:30:00,34.6,11.6,29.84,WSW,245,6.0,13.0,38,0.00,,---,0.00,VWS V15.00,2013-11-17 23:30:00,
2013-11-17 16:32:00,36.2,11.8,29.84,West,274,3.0,8.0,36,0.00,,---,0.00,VWS V13.01,2013-11-17 23:32:00,
2013-11-17 16:37:00,36.0,11.6,29.83,NW,312,3.0,10.0,36,0.00,,---,0.00,VWS V13.01,2013-11-17 23:37:00,
2013-11-17 16:42:00,35.9,12.2,29.84,WNW,296,3.0,10.0,37,0.00,,---,0.00,VWS V13.01,2013-11-17 23:42:00,
2013-11-17 16:47:00,35.7,12.0,29.82,WNW,299,2.0,10.0,37,0.00,,---,0.00,VWS V13.01,2013-11-17 23:47:00,
2013-11-17 16:52:00,35.6,12.5,29.83,WSW,238,1.0,11.0,38,0.00,,---,0.00,VWS V13.01,2013-11-17 23:52:00,
2013-11-17 16:57:00,35.5,11.8,29.83,West,274,5.0,11.0,37,0.00,,---,0.00,VWS V13.01,2013-11-17 23:57:00,
2013-11-17 17:00:00,34.1,11.8,29.86,West,269,4.0,6.0,39,0.00,,---,0.00,VWS V15.00,2013-11-18 00:00:00,
2013-11-17 17:02:00,35.3,11.6,29.83,West,259,6.0,13.0,37,0.00,,---,0.00,VWS V13.01,2013-11-18 00:02:00,
2013-11-17 17:08:00,35.2,12.1,29.83,WSW,251,10.0,13.0,38,0.00,,---,0.00,VWS V13.01,2013-11-18 00:08:00,
2013-11-17 17:13:00,35.1,12.1,29.83,West,280,5.0,13.0,38,0.00,,---,0.00,VWS V13.01,2013-11-18 00:13:00,
2013-11-17 17:18:00,34.9,11.9,29.84,NW,306,3.0,13.0,38,0.00,,---,0.00,VWS V13.01,2013-11-18 00:18:00,
2013-11-17 17:23:00,34.8,11.8,29.84,WNW,292,2.0,13.0,38,0.00,,---,0.00,VWS V13.01,2013-11-18 00:23:00,
2013-11-17 17:28:00,34.7,11.7,29.84,WNW,286,4.0,13.0,38,0.00,,---,0.00,VWS V13.01,2013-11-18 00:28:00,
2013-11-17 17:30:00,34.0,12.2,29.86,West,259,5.0,8.0,40,0.00,,---,0.00,VWS V15.00,2013-11-18 00:30:00,
2013-11-17 17:33:00,34.5,12.1,29.85,West,276,1.0,6.0,39,0.00,,---,0.00,VWS V13.01,2013-11-18 00:33:00,
2013-11-17 17:38:00,34.3,11.4,29.84,WNW,286,0.0,6.0,38,0.00,,---,0.00,VWS V13.01,2013-11-18 00:38:00,
2013-11-17 17:43:00,34.1,11.2,29.85,West,270,4.0,6.0,38,0.00,,---,0.00,VWS V13.01,2013-11-18 00:43:00,
2013-11-17 17:48:00,34.1,11.8,29.85,West,275,1.0,6.0,39,0.00,,---,0.00,VWS V13.01,2013-11-18 00:48:00,
2013-11-17 17:53:00,34.0,11.7,29.86,West,276,4.0,6.0,39,0.00,,---,0.00,VWS V13.01,2013-11-18 00:53:00,
2013-11-17 17:58:00,34.0,11.7,29.85,WNW,294,2.0,6.0,39,0.00,,---,0.00,VWS V13.01,2013-11-18 00:58:00,
2013-11-17 18:00:00,33.5,12.3,29.87,West,264,4.0,11.0,41,0.00,,---,0.00,VWS V15.00,2013-11-18 01:00:00,
2013-11-17 18:03:00,34.2,12.4,29.86,West,278,4.0,7.0,40,0.00,,---,0.00,VWS V13.01,2013-11-18 01:03:00,
2013-11-17 18:09:00,34.3,12.5,29.86,West,278,2.0,7.0,40,0.00,,---,0.00,VWS V13.01,2013-11-18 01:09:00,
2013-11-17 18:14:00,34.3,12.5,29.85,WNW,285,1.0,7.0,40,0.00,,---,0.00,VWS V13.01,2013-11-18 01:14:00,
2013-11-17 18:19:00,34.1,12.3,29.86,WNW,289,2.0,7.0,40,0.00,,---,0.00,VWS V13.01,2013-11-18 01:19:00,
2013-11-17 18:24:00,34.0,12.2,29.85,WSW,256,5.0,7.0,40,0.00,,---,0.00,VWS V13.01,2013-11-18 01:24:00,
2013-11-17 18:29:00,34.0,12.2,29.85,WSW,244,3.0,8.0,40,0.00,,---,0.00,VWS V13.01,2013-11-18 01:29:00,
2013-11-17 18:30:00,33.8,12.6,29.86,SW,234,9.0,13.0,41,0.00,,---,0.00,VWS V15.00,2013-11-18 01:30:00,
2013-11-17 18:34:00,33.9,12.1,29.86,West,279,4.0,11.0,40,0.00,,---,0.00,VWS V13.01,2013-11-18 01:34:00,
2013-11-17 18:39:00,33.9,12.1,29.86,WSW,238,6.0,11.0,40,0.00,,---,0.00,VWS V13.01,2013-11-18 01:39:00,
2013-11-17 18:44:00,33.9,12.1,29.86,WSW,258,5.0,11.0,40,0.00,,---,0.00,VWS V13.01,2013-11-18 01:44:00,
2013-11-17 18:49:00,33.8,12.1,29.86,WSW,239,7.0,11.0,40,0.00,,---,0.00,VWS V13.01,2013-11-18 01:49:00,
2013-11-17 18:54:00,33.7,12.0,29.86,SW,235,5.0,11.0,40,0.00,,---,0.00,VWS V13.01,2013-11-18 01:54:00,
2013-11-17 18:59:00,33.6,12.4,29.87,WSW,252,5.0,11.0,41,0.00,,---,0.00,VWS V13.01,2013-11-18 01:59:00,
2013-11-17 19:00:00,33.5,12.9,29.88,West,277,4.0,14.0,42,0.00,,---,0.00,VWS V15.00,2013-11-18 02:00:00,
2013-11-17 19:04:00,33.5,12.9,29.87,WSW,254,8.0,8.0,42,0.00,,---,0.00,VWS V13.01,2013-11-18 02:04:00,
2013-11-17 19:10:00,33.6,12.4,29.86,WSW,256,8.0,13.0,41,0.00,,---,0.00,VWS V13.01,2013-11-18 02:10:00,
2013-11-17 19:15:00,33.7,12.5,29.87,WSW,255,5.0,13.0,41,0.00,,---,0.00,VWS V13.01,2013-11-18 02:15:00,
2013-11-17 19:20:00,33.7,13.1,29.86,West,260,7.0,13.0,42,0.00,,---,0.00,VWS V13.01,2013-11-18 02:20:00,
2013-11-17 19:25:00,33.8,13.1,29.86,WSW,237,5.0,13.0,42,0.00,,---,0.00,VWS V13.01,2013-11-18 02:25:00,
2013-11-17 19:30:00,33.8,12.6,29.86,SW,227,7.0,9.0,41,0.00,,---,0.00,VWS V13.01,2013-11-18 02:30:00,
2013-11-17 19:35:00,33.7,12.5,29.87,SW,232,6.0,14.0,41,0.00,,---,0.00,VWS V13.01,2013-11-18 02:35:00,
2013-11-17 19:40:00,33.6,13.0,29.87,SW,229,9.0,14.0,42,0.00,,---,0.00,VWS V13.01,2013-11-18 02:40:00,
2013-11-17 19:45:00,33.5,12.9,29.88,WSW,239,9.0,14.0,42,0.00,,---,0.00,VWS V13.01,2013-11-18 02:45:00,
2013-11-17 19:50:00,33.5,12.9,29.87,SW,220,6.0,14.0,42,0.00,,---,0.00,VWS V13.01,2013-11-18 02:50:00,
2013-11-17 19:55:00,33.5,12.9,29.89,WSW,247,6.0,14.0,42,0.00,,---,0.00,VWS V13.01,2013-11-18 02:55:00,
2013-11-17 20:00:00,33.5,12.9,29.88,West,271,4.0,6.0,42,0.00,,---,0.00,VWS V13.01,2013-11-18 03:00:00,
2013-11-17 20:05:00,33.5,12.3,29.88,West,260,5.0,9.0,41,0.00,,---,0.00,VWS V13.01,2013-11-18 03:05:00,
2013-11-17 20:11:00,33.4,12.8,29.88,SW,230,9.0,12.0,42,0.00,,---,0.00,VWS V13.01,2013-11-18 03:11:00,
2013-11-17 20:16:00,33.6,13.0,29.88,SW,229,6.0,13.0,42,0.00,,---,0.00,VWS V13.01,2013-11-18 03:16:00,
2013-11-17 20:21:00,33.6,12.4,29.88,SW,220,8.0,13.0,41,0.00,,---,0.00,VWS V13.01,2013-11-18 03:21:00,
2013-11-17 20:26:00,33.7,12.5,29.89,WSW,244,8.0,13.0,41,0.00,,---,0.00,VWS V13.01,2013-11-18 03:26:00,
2013-11-17 20:30:00,34.5,11.5,29.88,SSW,212,9.0,14.0,38,0.00,,---,0.00,VWS V15.00,2013-11-18 03:30:00,
2013-11-17 20:31:00,33.6,12.4,29.88,WSW,245,5.0,6.0,41,0.00,,---,0.00,VWS V13.01,2013-11-18 03:31:00,
2013-11-17 20:36:00,33.2,11.5,29.88,SW,235,4.0,8.0,40,0.00,,---,0.00,VWS V13.01,2013-11-18 03:36:00,
2013-11-17 20:41:00,32.8,11.7,29.89,WSW,237,7.0,8.0,41,0.00,,---,0.00,VWS V13.01,2013-11-18 03:41:00,
2013-11-17 20:46:00,32.9,11.8,29.89,WSW,240,9.0,10.0,41,0.00,,---,0.00,VWS V13.01,2013-11-18 03:46:00,
2013-11-17 20:51:00,33.4,11.7,29.89,WSW,237,8.0,12.0,40,0.00,,---,0.00,VWS V13.01,2013-11-18 03:51:00,
2013-11-17 20:56:00,33.5,12.3,29.88,SW,229,7.0,12.0,41,0.00,,---,0.00,VWS V13.01,2013-11-18 03:56:00,
2013-11-17 21:00:00,35.2,11.6,29.88,SSW,211,10.0,12.0,37,0.00,,---,0.00,VWS V15.00,2013-11-18 04:00:00,
2013-11-17 21:01:00,33.8,12.1,29.88,SW,236,8.0,11.0,40,0.00,,---,0.00,VWS V13.01,2013-11-18 04:01:00,
2013-11-17 21:06:00,34.2,11.8,29.88,SW,217,9.0,14.0,39,0.00,,---,0.00,VWS V13.01,2013-11-18 04:06:00,
2013-11-17 21:11:00,34.4,12.0,29.88,SW,214,6.0,14.0,39,0.00,,---,0.00,VWS V13.01,2013-11-18 04:11:00,
2013-11-17 21:16:00,34.4,11.4,29.88,SW,221,8.0,14.0,38,0.00,,---,0.00,VWS V13.01,2013-11-18 04:16:00,
2013-11-17 21:22:00,34.3,11.9,29.88,SW,234,8.0,14.0,39,0.00,,---,0.00,VWS V13.01,2013-11-18 04:22:00,
2013-11-17 21:27:00,34.4,11.4,29.89,SW,225,5.0,14.0,38,0.00,,---,0.00,VWS V13.01,2013-11-18 04:27:00,
2013-11-17 21:30:00,35.2,11.6,29.89,WSW,251,5.0,12.0,37,0.00,,---,0.00,VWS V15.00,2013-11-18 04:30:00,
2013-11-17 21:32:00,34.6,11.6,29.88,SW,227,8.0,9.0,38,0.00,,---,0.00,VWS V13.01,2013-11-18 04:32:00,
2013-11-17 21:37:00,34.7,11.1,29.88,SSW,213,4.0,12.0,37,0.00,,---,0.00,VWS V13.01,2013-11-18 04:37:00,
2013-11-17 21:42:00,35.0,11.4,29.89,SSW,213,9.0,12.0,37,0.00,,---,0.00,VWS V13.01,2013-11-18 04:42:00,
2013-11-17 21:47:00,35.1,11.5,29.89,SW,216,6.0,12.0,37,0.00,,---,0.00,VWS V13.01,2013-11-18 04:47:00,
2013-11-17 21:52:00,35.1,11.5,29.88,WSW,244,6.0,12.0,37,0.00,,---,0.00,VWS V13.01,2013-11-18 04:52:00,
2013-11-17 21:57:00,35.1,10.9,29.88,SW,222,5.0,12.0,36,0.00,,---,0.00,VWS V13.01,2013-11-18 04:57:00,
2013-11-17 22:00:00,35.2,12.7,29.88,WSW,240,6.0,13.0,39,0.00,,---,0.00,VWS V15.00,2013-11-18 05:00:00,
2013-11-17 22:01:00,35.3,11.6,29.88,SSW,210,7.0,12.0,37,0.00,,---,0.00,VWS V13.01,2013-11-18 05:01:00,
2013-11-17 22:02:00,35.3,11.0,29.88,SSW,196,8.0,12.0,36,0.00,,---,0.00,VWS V13.01,2013-11-18 05:02:00,
2013-11-17 22:04:00,35.6,11.3,29.88,SSW,201,9.0,12.0,36,0.00,,---,0.00,VWS V13.01,2013-11-18 05:04:00,
2013-11-17 22:06:00,35.6,11.3,29.88,SSW,201,9.0,12.0,36,0.00,,---,0.00,VWS V13.01,2013-11-18 05:06:00,
2013-11-17 22:11:00,36.1,11.1,29.88,SSW,210,7.0,12.0,35,0.00,,---,0.00,VWS V13.01,2013-11-18 05:11:00,
2013-11-17 22:16:00,36.0,11.0,29.89,SW,220,6.0,12.0,35,0.00,,---,0.00,VWS V13.01,2013-11-18 05:16:00,
2013-11-17 22:21:00,35.5,11.2,29.88,SSW,205,7.0,12.0,36,0.00,,---,0.00,VWS V13.01,2013-11-18 05:21:00,
2013-11-17 22:26:00,35.3,11.6,29.88,SW,232,5.0,12.0,37,0.00,,---,0.00,VWS V13.01,2013-11-18 05:26:00,
2013-11-17 22:30:00,36.0,13.5,29.88,WSW,248,6.0,16.0,39,0.00,,---,0.00,VWS V15.00,2013-11-18 05:30:00,
2013-11-17 22:31:00,35.1,12.1,29.88,WSW,241,6.0,6.0,38,0.00,,---,0.00,VWS V13.01,2013-11-18 05:31:00,
2013-11-17 22:36:00,34.7,12.3,29.89,SW,227,8.0,8.0,39,0.00,,---,0.00,VWS V13.01,2013-11-18 05:36:00,
2013-11-17 22:42:00,34.5,12.1,29.88,WSW,249,4.0,8.0,39,0.00,,---,0.00,VWS V13.01,2013-11-18 05:42:00,
2013-11-17 22:47:00,34.6,12.2,29.88,West,269,5.0,11.0,39,0.00,,---,0.00,VWS V13.01,2013-11-18 05:47:00,
2013-11-17 22:52:00,34.6,12.2,29.88,South,190,2.0,11.0,39,0.00,,---,0.00,VWS V13.01,2013-11-18 05:52:00,
2013-11-17 22:57:00,35.1,12.1,29.89,WSW,256,8.0,11.0,38,0.00,,---,0.00,VWS V13.01,2013-11-18 05:57:00,
2013-11-17 23:00:00,36.4,13.2,29.89,WSW,248,7.0,17.0,38,0.00,,---,0.00,VWS V15.00,2013-11-18 06:00:00,
2013-11-17 23:02:00,35.4,12.9,29.88,WSW,258,6.0,10.0,39,0.00,,---,0.00,VWS V13.01,2013-11-18 06:02:00,
2013-11-17 23:07:00,36.0,12.9,29.88,WSW,240,9.0,10.0,38,0.00,,---,0.00,VWS V13.01,2013-11-18 06:07:00,
2013-11-17 23:12:00,36.1,13.0,29.88,West,262,7.0,12.0,38,0.00,,---,0.00,VWS V13.01,2013-11-18 06:12:00,
2013-11-17 23:30:00,36.0,13.5,29.88,WSW,248,6.0,16.0,39,0.00,,---,0.00,VWS V13.01,2013-11-18 06:30:00,